FW8402 Weather Reports


Display with metric or nautical units.
time (UTC)temp
F
wind
direction
speed
MPH
gust
MPH
rain 1hr
in
rain 24hr
in
rain mn
in
humidity
%
barometer
mb
20260502200201 71 54 16.0 23.0 0.00 0.21 0.21 47 1020.1
20260502195700 71 45 16.0 29.0 0.00 0.21 0.21 49 1020.3
20260502195156 71 32 20.0 28.0 0.00 0.21 0.21 49 1020.2
20260502194653 71 43 13.0 22.0 0.00 0.21 0.21 48 1020.3
20260502194144 71 56 8.0 17.0 0.00 0.21 0.21 52 1020.2
20260502193635 71 39 18.0 20.0 0.00 0.21 0.21 50 1020.5
20260502193132 71 50 11.0 17.0 0.00 0.21 0.21 51 1020.5
20260502192627 71 70 12.0 22.0 0.00 0.21 0.21 49 1020.4
20260502192125 71 42 14.0 19.0 0.00 0.21 0.21 49 1020.2
20260502191621 70 63 16.0 27.0 0.00 0.21 0.21 50 1020.3
20260502191113 71 26 18.0 29.0 0.00 0.21 0.21 49 1020.2
20260502190611 70 51 16.0 20.0 0.00 0.21 0.21 52 1020.3
20260502190108 71 44 8.0 23.0 0.00 0.21 0.21 52 1020.2
20260502185602 70 59 15.0 27.0 0.00 0.21 0.21 53 1020.3
20260502185059 71 51 12.0 18.0 0.00 0.21 0.21 55 1020.4
20260502184555 70 34 17.0 23.0 0.00 0.21 0.21 54 1020.5
20260502184046 70 30 14.0 19.0 0.00 0.21 0.21 56 1020.4
20260502183543 70 72 16.0 24.0 0.00 0.21 0.21 55 1020.6
20260502183039 70 60 16.0 19.0 0.00 0.21 0.21 56 1020.6
20260502182534 70 42 18.0 25.0 0.00 0.21 0.21 56 1020.5
20260502182030 69 43 11.0 23.0 0.00 0.21 0.21 58 1020.7
20260502181528 69 50 9.0 25.0 0.00 0.21 0.21 57 1020.7
20260502181026 70 56 11.0 21.0 0.00 0.21 0.21 58 1020.5
20260502180522 69 59 16.0 23.0 0.00 0.21 0.21 59 1020.7
20260502170430 69 42 23.0 24.0 0.00 0.21 0.21 63 1021.2
20260502163914 67 64 10.0 18.0 0.00 0.21 0.21 67 1021.4
20260502163410 68 38 15.0 19.0 0.00 0.21 0.21 65 1021.5
20260502162908 67 42 14.0 20.0 0.00 0.21 0.21 67 1021.4
20260502162404 66 54 17.0 20.0 0.00 0.21 0.21 68 1021.3
20260502161901 66 69 8.0 22.0 0.00 0.21 0.21 69 1021.3
20260502161357 66 53 16.0 23.0 0.00 0.21 0.21 69 1021.4
20260502160855 66 55 13.0 20.0 0.00 0.21 0.21 71 1021.4
20260502160353 66 57 18.0 24.0 0.00 0.21 0.21 70 1021.4
20260502152334 64 71 10.0 19.0 0.00 0.21 0.21 75 1021.2
20260502151831 64 59 11.0 17.0 0.00 0.21 0.21 75 1021.0
20260502151328 64 52 13.0 17.0 0.00 0.21 0.21 75 1021.1
20260502150825 64 50 12.0 18.0 0.00 0.21 0.21 76 1021.2
20260502150321 64 55 11.0 14.0 0.00 0.21 0.21 77 1021.0
20260502130710 57 60 9.0 18.0 0.00 0.21 0.21 90 1019.8
20260502130203 57 55 13.0 15.0 0.00 0.21 0.21 90 1019.7
20260502123648 56 57 12.0 15.0 0.00 0.21 0.21 92 1019.0
20260502123145 55 53 11.0 15.0 0.00 0.21 0.21 92 1019.0
20260502122641 55 52 11.0 13.0 0.00 0.21 0.21 92 1019.2
20260502122138 55 78 10.0 14.0 0.00 0.21 0.21 93 1019.0
20260502121636 55 60 8.0 14.0 0.00 0.21 0.21 93 1019.1
20260502121133 54 58 11.0 11.0 0.00 0.21 0.21 94 1019.0
20260502120630 54 77 6.0 12.0 0.00 0.21 0.21 95 1018.9
20260502120127 54 68 9.0 11.0 0.00 0.21 0.21 95 1018.7
20260502115624 53 67 8.0 13.0 0.00 0.21 0.21 95 1018.4
20260502115120 53 68 9.0 10.0 0.00 0.21 0.21 95 1018.6
20260502114616 53 68 9.0 11.0 0.00 0.21 0.21 95 1018.4
20260502114114 53 56 11.0 13.0 0.00 0.21 0.21 95 1018.4
20260502113611 53 58 11.0 13.0 0.00 0.21 0.21 94 1018.2
20260502113110 53 67 7.0 12.0 0.00 0.21 0.21 94 1018.2
20260502112607 53 62 9.0 14.0 0.00 0.21 0.21 94 1018.4
20260502112104 53 67 9.0 13.0 0.00 0.21 0.21 94 1018.4
20260502111602 53 87 8.0 12.0 0.00 0.21 0.21 94 1018.3
20260502111059 53 74 10.0 14.0 0.00 0.21 0.21 93 1018.2
20260502110556 54 71 9.0 11.0 0.00 0.21 0.21 93 1018.0
20260502110054 54 76 7.0 13.0 0.00 0.21 0.21 93 1018.2
20260502105551 53 60 11.0 12.0 0.00 0.21 0.21 94 1017.9
20260502105048 53 36 12.0 14.0 0.00 0.21 0.21 94 1017.8
20260502104545 53 55 11.0 11.0 0.00 0.21 0.21 94 1018.0
20260502104043 54 65 8.0 13.0 0.00 0.21 0.21 94 1017.9
20260502103541 54 57 13.0 15.0 0.00 0.21 0.21 94 1018.0
20260502103038 54 62 15.0 16.0 0.00 0.21 0.21 94 1017.9
20260502102534 54 60 10.0 14.0 0.00 0.21 0.21 94 1017.9
20260502102032 54 61 9.0 17.0 0.00 0.21 0.21 93 1017.9
20260502101529 54 58 15.0 18.0 0.00 0.21 0.21 93 1017.9
20260502101027 54 56 11.0 18.0 0.00 0.21 0.21 94 1017.6
20260502100526 54 56 20.0 20.0 0.00 0.21 0.21 94 1017.8
20260502091500 53 54 15.0 17.0 0.00 0.21 0.21 99 1017.1
20260502090958 53 57 12.0 15.0 0.00 0.21 0.21 99 1017.0
20260502090454 53 54 12.0 18.0 0.00 0.21 0.21 99 1017.2
20260502071349 54 40 15.0 16.0 0.00 0.20 0.20 99 1016.6
20260502070847 54 43 13.0 17.0 0.00 0.20 0.20 99 1016.5
20260502070344 54 48 16.0 20.0 0.00 0.20 0.20 99 1016.5
20260502065844 54 64 9.0 16.0 0.00 0.20 0.20 99 1016.8
20260502065341 54 56 10.0 20.0 0.00 0.20 0.20 99 1017.1
20260502064839 54 65 8.0 12.0 0.02 0.20 0.20 99 1017.0
20260502064336 54 55 12.0 15.0 0.05 0.20 0.20 99 1017.3
20260502063833 54 59 13.0 14.0 0.05 0.19 0.19 99 1017.2
20260502063331 54 68 10.0 14.0 0.02 0.19 0.19 99 1017.0
20260502062828 54 78 9.0 13.0 0.05 0.18 0.18 99 1017.2
20260502062325 54 67 9.0 17.0 0.07 0.18 0.18 99 1017.2
20260502061824 54 64 13.0 17.0 0.12 0.18 0.18 99 1017.0
20260502061321 54 62 11.0 18.0 0.26 0.17 0.17 99 1017.4
20260502060817 54 38 13.0 14.0 0.21 0.15 0.15 99 1017.5
20260502060312 54 51 9.0 11.0 0.12 0.13 0.13 99 1017.6
20260502055810 54 78 7.0 9.0 0.14 0.11 0.11 99 1017.7
20260502055308 54 83 10.0 17.0 0.21 0.11 0.11 99 1017.0
20260502054807 54 68 11.0 18.0 0.24 0.09 0.09 99 1016.6
20260502054304 54 57 12.0 17.0 0.19 0.07 0.07 99 1016.6
20260502053801 55 70 11.0 14.0 0.12 0.04 0.04 99 1016.6
20260502053259 55 55 9.0 14.0 0.07 0.03 0.03 99 1016.5
20260502052756 55 75 14.0 18.0 0.05 0.02 0.02 99 1016.2
20260502052254 55 60 9.0 19.0 0.09 0.02 0.02 99 1016.4
20260502051752 55 69 10.0 22.0 0.09 0.02 0.02 99 1016.1
20260502051251 55 54 13.0 18.0 0.02 0.00 0.00 99 1016.4
20260502050746 55 55 12.0 15.0 0.02 0.00 0.00 99 1016.9
20260502050243 55 47 12.0 16.0 0.12 0.00 0.00 99 1016.7
20260502045740 55 46 13.0 16.0 0.19 2.75 2.75 99 1016.7
20260502045237 55 53 9.0 16.0 0.14 2.74 2.74 99 1017.3
20260502044733 55 60 9.0 16.0 0.02 2.72 2.72 99 1016.8
20260502044229 55 60 11.0 15.0 0.09 2.71 2.71 99 1017.0
20260502043727 56 38 13.0 18.0 0.17 2.71 2.71 99 1016.5
20260502043225 56 56 11.0 17.0 0.14 2.69 2.69 98 1016.6
20260502042724 56 66 10.0 18.0 0.12 2.68 2.68 98 1016.8
20260502042221 56 62 8.0 17.0 0.14 2.67 2.67 98 1017.1
20260502041719 56 52 12.0 19.0 0.12 2.66 2.66 98 1016.9
20260502041216 56 46 11.0 25.0 0.07 2.65 2.65 98 1016.8
20260502040713 56 58 17.0 20.0 0.02 2.64 2.64 98 1017.0
20260502040210 56 63 9.0 17.0 0.00 2.63 2.63 98 1016.7
20260502035706 56 50 14.0 18.0 0.00 2.63 2.63 98 1016.5
20260502035203 56 41 17.0 19.0 0.02 2.63 2.63 98 1016.3
20260502034701 56 39 12.0 18.0 0.02 2.63 2.63 98 1016.4
20260502034159 56 45 13.0 18.0 0.05 2.63 2.63 99 1016.4
20260502033656 56 55 12.0 21.0 0.02 2.63 2.63 99 1016.4
20260502033154 56 48 11.0 17.0 0.00 2.62 2.62 99 1016.2
20260502032650 56 68 10.0 18.0 0.00 2.62 2.62 99 1016.3
20260502032146 56 60 10.0 16.0 0.00 2.62 2.62 99 1016.2
20260502031644 56 76 10.0 17.0 0.00 2.62 2.62 99 1015.9
20260502031142 56 69 9.0 19.0 0.00 2.62 2.62 99 1015.6
20260502030641 56 45 12.0 16.0 0.00 2.62 2.62 99 1016.1
20260502030138 56 57 15.0 19.0 0.00 2.62 2.62 99 1016.1
20260502025635 56 54 13.0 17.0 0.00 2.62 2.62 99 1015.8
20260502025133 56 57 12.0 20.0 0.00 2.62 2.62 99 1016.0
20260502024631 56 59 11.0 22.0 0.00 2.62 2.62 99 1015.9
20260502024128 56 48 11.0 17.0 0.00 2.62 2.62 99 1015.5
20260502023626 56 64 13.0 17.0 0.00 2.62 2.62 99 1016.0
20260502023123 56 50 16.0 21.0 0.00 2.62 2.62 99 1015.7
20260502022620 56 61 11.0 23.0 0.00 2.62 2.62 99 1015.9
20260502022117 57 38 15.0 17.0 0.00 2.62 2.62 99 1015.7
20260502021614 57 58 14.0 19.0 0.00 2.62 2.62 99 1015.5
20260502021111 57 58 16.0 17.0 0.00 2.62 2.62 99 1015.3
20260502020609 57 59 11.0 15.0 0.00 2.62 2.62 99 1015.3
20260502020106 57 64 11.0 20.0 0.00 2.62 2.62 99 1015.4
20260502015603 56 64 11.0 16.0 0.00 2.62 2.62 99 1015.3
20260502015059 56 66 10.0 17.0 0.00 2.62 2.62 99 1015.4
20260502014556 57 58 13.0 17.0 0.00 2.62 2.62 99 1015.3
20260502014054 56 53 15.0 18.0 0.00 2.62 2.62 99 1015.0
20260502013549 57 54 12.0 14.0 0.00 2.62 2.62 99 1014.8
20260502013045 57 55 11.0 17.0 0.00 2.62 2.62 99 1014.8
20260502012543 57 71 10.0 17.0 0.00 2.62 2.62 99 1014.2
20260502012040 57 46 10.0 16.0 0.00 2.62 2.62 99 1014.0
20260502011537 57 67 13.0 18.0 0.00 2.62 2.62 99 1013.8
20260502011033 57 61 12.0 16.0 0.00 2.62 2.62 99 1013.5
20260502010531 57 68 16.0 19.0 0.00 2.62 2.62 99 1013.3
20260502010027 57 80 12.0 22.0 0.00 2.62 2.62 99 1013.4
20260502005525 57 72 10.0 16.0 0.00 2.62 2.62 99 1013.3
20260502005023 57 65 14.0 21.0 0.00 2.62 2.62 99 1012.9
20260502004518 57 47 14.0 18.0 0.00 2.62 2.62 99 1012.9
20260502004015 57 61 15.0 21.0 0.00 2.62 2.62 99 1011.9
20260502003513 57 66 15.0 18.0 0.00 2.62 2.62 99 1011.4
20260502003009 57 58 12.0 19.0 0.00 2.62 2.62 99 1011.6
20260502002506 57 65 13.0 21.0 0.00 2.62 2.62 99 1011.6
20260502002003 57 63 13.0 19.0 0.02 2.62 2.62 99 1011.8
20260502001501 57 55 20.0 21.0 0.12 2.62 2.62 99 1012.2
20260502000958 57 63 12.0 16.0 0.19 2.61 2.61 99 1012.3
20260502000457 57 55 15.0 21.0 0.14 2.61 2.61 99 1012.7
20260501235952 57 77 14.0 19.0 0.00 2.58 2.58 99 1014.0
20260501235448 57 68 12.0 17.0 0.09 2.58 2.58 99 1013.9
20260501234943 57 78 9.0 17.0 0.05 2.58 2.58 99 1014.4
20260501234440 57 78 9.0 17.0 0.02 2.57 2.57 99 1014.4
20260501233940 57 62 9.0 16.0 0.14 2.57 2.57 99 1014.0
20260501233437 57 63 16.0 21.0 0.24 2.56 2.56 99 1014.4
20260501232932 57 64 11.0 17.0 0.26 2.54 2.54 99 1014.5
20260501232429 57 69 12.0 15.0 0.17 2.52 2.52 99 1014.7
20260501231926 57 65 11.0 13.0 0.21 2.50 2.50 99 1014.4
20260501231425 57 67 14.0 17.0 0.83 2.49 2.49 99 1014.8
20260501230922 57 63 15.0 15.0 0.52 2.44 2.44 99 1015.3
20260501230421 58 76 13.0 17.0 0.05 2.35 2.35 99 1015.1
20260501225918 57 66 13.0 23.0 0.05 2.35 2.35 99 1014.3
20260501225416 58 70 10.0 16.0 0.07 2.35 2.35 99 1013.5
20260501224911 58 65 17.0 25.0 0.09 2.34 2.34 99 1013.5
20260501224409 58 70 12.0 19.0 0.14 2.33 2.33 99 1013.8
20260501223906 58 62 14.0 19.0 0.09 2.32 2.32 99 1014.0
20260501223402 58 72 14.0 22.0 0.02 2.31 2.31 99 1014.0
20260501222857 58 58 14.0 17.0 0.02 2.31 2.31 99 1014.6
20260501222355 58 50 14.0 17.0 0.00 2.30 2.30 99 1014.7
20260501221851 58 46 18.0 20.0 0.00 2.30 2.30 99 1014.2
20260501221349 58 46 19.0 22.0 0.00 2.30 2.30 99 1014.0
20260501220847 58 73 10.0 20.0 0.00 2.30 2.30 99 1013.5
20260501220344 58 61 13.0 19.0 0.05 2.30 2.30 99 1013.4
20260501215840 58 61 9.0 20.0 0.21 2.30 2.30 99 1013.6
20260501215337 58 62 17.0 18.0 0.26 2.29 2.29 99 1013.2
20260501214833 58 61 14.0 18.0 0.19 2.27 2.27 99 1013.6
20260501214328 58 54 13.0 20.0 0.14 2.25 2.25 99 1013.7
20260501213825 58 55 12.0 16.0 0.24 2.24 2.24 99 1013.6
20260501213321 58 46 10.0 17.0 0.14 2.22 2.22 99 1013.9
20260501212817 58 74 12.0 17.0 0.05 2.20 2.20 99 1013.8
20260501212314 59 83 9.0 15.0 0.07 2.19 2.19 99 1013.7
20260501211811 59 71 10.0 12.0 0.07 2.19 2.19 99 1014.0
20260501211308 59 67 15.0 20.0 0.07 2.18 2.18 99 1013.7
20260501210805 59 80 10.0 14.0 0.09 2.18 2.18 99 1013.4
20260501210302 59 75 14.0 15.0 0.09 2.17 2.17 99 1013.9
20260501205758 59 100 12.0 15.0 0.17 2.16 2.16 99 1014.3
20260501205255 59 86 9.0 17.0 0.26 2.15 2.15 99 1014.1
20260501204752 59 58 12.0 21.0 0.24 2.13 2.13 99 1014.1
20260501204248 59 65 13.0 16.0 0.02 2.09 2.09 99 1014.2
20260501203745 59 66 11.0 20.0 0.09 2.09 2.09 99 1014.4
20260501203243 59 56 14.0 22.0 0.21 2.09 2.09 99 1014.4
20260501202739 59 53 11.0 13.0 0.28 2.08 2.08 99 1015.2
20260501202236 59 66 8.0 15.0 0.24 2.05 2.05 99 1015.2
20260501201733 59 46 15.0 18.0 0.24 2.02 2.02 99 1014.8
20260501201230 60 58 15.0 22.0 0.26 2.00 2.00 99 1014.4
20260501200727 60 39 20.0 31.0 0.26 1.98 1.98 99 1013.7
20260501200224 61 59 16.0 23.0 0.28 1.95 1.95 99 1013.6